Weather History for Florence, Italy

Change the Weather History Date:

Monday, July 15, 2013

  Actual Average Record
Temperature  
Mean Temperature 76 °F -  
Max Temperature 91 °F 88 °F 96 °F (2007)
Min Temperature 62 °F 63 °F 57 °F (2008)
Cooling Degree Days 12    
Growing Degree Days 26 (Base 50)    
Moisture  
Dew Point 59 °F    
Average Humidity 55    
Maximum Humidity 88    
Minimum Humidity 18    
Precipitation  
Precipitation 0.00 in 0.08 in - ()
Sea Level Pressure  
Sea Level Pressure 30.03 in    
Wind  
Wind Speed 3 mph ()    
Max Wind Speed 10 mph    
Max Gust Speed -    
Visibility 17.3 miles    
Events      
Averages and records for this station are not official NWS values.
T = Trace of Precipitation, MM = Missing Value Source: Averaged Metar Reports

Daily Weather History Graph

Daily Weather History Graph

Search for Another Location

Airport:

Trip Planner

Search our weather history database for the weather conditions in past years. The results will help you decide how hot, cold, wet, or windy it might be!

Date:

Astronomy

Jul. 15, 2013 Rise Set
Actual Time 5:46 AM CEST 8:54 PM CEST
Civil Twilight 5:12 AM CEST 9:29 PM CEST
Nautical Twilight 4:27 AM CEST 10:14 PM CEST
Astronomical Twilight 3:33 AM CEST 11:07 PM CEST
Moon 1:04 PM CEST (7/15) No Moon Set
Length of Visible Light 16h 17m
Length of Day
15h 07m
Waxing Crescent, 42% of the Moon is Illuminated
Jul 15
Waxing Crescent
Jul 16
First Quarter
Jul 22
Full
Jul 29
Last Quarter
Aug 6
New

Hourly Weather History & Observations

Time (CEST) Temp. Heat Index Dew Point Humidity Pressure Visibility Wind Dir Wind Speed Gust Speed Precip Events Conditions
12:20 AM 69.8 °F - 62.6 °F 78% 30.04 in - SSE 3.5 mph - N/A   Clear
12:50 AM 69.8 °F - 62.6 °F 78% 30.04 in - Variable 3.5 mph - N/A   Clear
1:20 AM 69.8 °F - 62.6 °F 78% 30.04 in - Variable 2.3 mph - N/A   Clear
1:50 AM 69.8 °F - 62.6 °F 78% 30.04 in - Variable 2.3 mph - N/A   Clear
2:00 AM 69 °F - 62 °F 72% 30.06 in 19 mi East 1.2 mph - -  
2:20 AM 68.0 °F - 62.6 °F 83% 30.04 in - Variable 1.2 mph - N/A   Clear
2:50 AM 66.2 °F - 60.8 °F 83% 30.04 in - SSE 3.5 mph - N/A   Clear
3:20 AM 66.2 °F - 62.6 °F 88% 30.04 in - Variable 1.2 mph - N/A   Clear
3:50 AM 66.2 °F - 60.8 °F 83% 30.04 in - SE 5.8 mph - N/A   Clear
4:20 AM 64.4 °F - 60.8 °F 88% 30.04 in - Variable 2.3 mph - N/A   Clear
4:50 AM 64.4 °F - 59.0 °F 83% 30.04 in - NE 3.5 mph - N/A   Clear
5:00 AM 64 °F - 59 °F 79% 30.06 in 19 mi ENE 6.7 mph - -  
5:20 AM 66.2 °F - 60.8 °F 83% 30.04 in - East 2.3 mph - N/A   Clear
5:50 AM 62.6 °F - 59.0 °F 88% 30.06 in - Variable 2.3 mph - N/A   Clear
6:20 AM 62.6 °F - 59.0 °F 88% 30.06 in - Variable 2.3 mph - N/A   Clear
6:50 AM 64.4 °F - 60.8 °F 88% 30.06 in - Calm Calm - N/A   Clear
7:20 AM 68.0 °F - 62.6 °F 83% 30.06 in - NNE 2.3 mph - N/A   Clear
7:50 AM 69.8 °F - 60.8 °F 73% 30.06 in - Variable 2.3 mph - N/A   Clear
8:00 AM 70 °F - 60 °F 64% 30.07 in 16 mi ESE 2.3 mph - -  
8:20 AM 73.4 °F - 60.8 °F 65% 30.06 in - Variable 1.2 mph - N/A   Clear
8:50 AM 73.4 °F - 60.8 °F 65% 30.06 in - Variable 1.2 mph - N/A   Clear
9:20 AM 75.2 °F - 62.6 °F 65% 30.06 in - Variable 1.2 mph - N/A   Clear
9:50 AM 77.0 °F - 60.8 °F 57% 30.06 in - Variable 1.2 mph - N/A   Clear
10:20 AM 78.8 °F - 60.8 °F 54% 30.06 in - Variable 1.2 mph - N/A   Clear
10:50 AM 82.4 °F 83.4 °F 62.6 °F 51% 30.06 in - Variable 1.2 mph - N/A   Clear
11:00 AM 82 °F - 62 °F 40% 30.07 in 16 mi South 4.5 mph - -  
11:20 AM 84.2 °F 85.0 °F 62.6 °F 48% 30.06 in - Variable 2.3 mph - N/A   Clear
11:50 AM 84.2 °F 83.5 °F 57.2 °F 40% 30.06 in - ESE 3.5 mph - N/A   Clear
12:20 PM 86.0 °F - 51.8 °F 31% 30.06 in - Variable 3.5 mph - N/A   Clear
12:50 PM 87.8 °F 86.5 °F 57.2 °F 35% 30.04 in - Variable 2.3 mph - N/A   Clear
1:20 PM 87.8 °F 85.7 °F 53.6 °F 31% 30.04 in - SW 5.8 mph - N/A   Clear
1:50 PM 87.8 °F 85.7 °F 53.6 °F 31% 30.04 in - Variable 4.6 mph - N/A   Clear
2:00 PM 89 °F - 54 °F 21% 30.04 in 19 mi SSE 4.6 mph - -  
2:20 PM 89.6 °F 87.3 °F 53.6 °F 29% 30.04 in - Variable 3.5 mph - N/A   Clear
2:50 PM 89.6 °F - 51.8 °F 27% 30.04 in - Variable 5.8 mph - N/A   Clear
3:20 PM 89.6 °F - 51.8 °F 27% 30.01 in - Variable 3.5 mph - N/A   Clear
3:50 PM 91.4 °F - 50.0 °F 24% 30.01 in - Variable 4.6 mph - N/A   Clear
4:20 PM 91.4 °F - 51.8 °F 26% 30.01 in - SSW 5.8 mph - N/A   Clear
4:50 PM 91.4 °F - 51.8 °F 26% 30.01 in - West 5.8 mph - N/A   Clear
5:00 PM 91 °F - 53 °F 18% 30.00 in 16 mi WNW 8.9 mph - -   Scattered Clouds
5:20 PM 91.4 °F - 51.8 °F 26% 29.98 in - South 6.9 mph - N/A   Clear
5:50 PM 91.4 °F - 51.8 °F 26% 29.98 in - WSW 6.9 mph - N/A   Clear
6:20 PM 89.6 °F - 51.8 °F 27% 29.98 in - West 9.2 mph - N/A   Clear
6:50 PM 89.6 °F 88.9 °F 59.0 °F 36% 29.98 in - West 9.2 mph - N/A   Clear
7:20 PM 87.8 °F 87.1 °F 59.0 °F 38% 29.98 in - West 10.4 mph - N/A   Clear
7:50 PM 86.0 °F 85.4 °F 59.0 °F 40% 29.98 in - West 9.2 mph - N/A   Clear
8:00 PM 85 °F - 60 °F 32% 30.00 in 16 mi West 8.1 mph - -  
8:20 PM 84.2 °F 83.8 °F 59.0 °F 42% 30.01 in - West 8.1 mph - N/A   Clear
8:50 PM 80.6 °F 81.8 °F 62.6 °F 54% 30.01 in - WNW 4.6 mph - N/A   Clear
9:20 PM 78.8 °F - 62.6 °F 57% 30.01 in - Variable 2.3 mph - N/A   Clear
9:50 PM 78.8 °F - 62.6 °F 57% 30.01 in - Variable 2.3 mph - N/A   Clear
10:20 PM 78.8 °F - 62.6 °F 57% 30.04 in - SSW 3.5 mph - N/A   Clear
10:50 PM 77.0 °F - 62.6 °F 61% 30.04 in - South 3.5 mph - N/A   Clear
11:20 PM 77.0 °F - 62.6 °F 61% 30.04 in - Variable 2.3 mph - N/A   Clear
11:50 PM 73.4 °F - 62.6 °F 69% 30.06 in - ESE 3.5 mph - N/A   Clear